Waarnemingen

Advertentie
Mijn weer
Semmerzake, België (6428): temperatuur & dauwpunt: 06.12.2018 16:00:00 - 12.12.2018 16:00:00 (CET)Semmerzake, België (6428): windsnelheid & windstoten: 06.12.2018 16:00:00 - 12.12.2018 16:00:00 (CET)Semmerzake, België (6428): windrichting: 06.12.2018 16:00:00 - 12.12.2018 16:00:00 (CET)Semmerzake, België (6428): luchtdruk: 06.12.2018 16:00:00 - 12.12.2018 16:00:00 (CET)Semmerzake, België (6428): zicht: 06.12.2018 16:00:00 - 12.12.2018 16:00:00 (CET)
Datum & Tijd tt [°C] td [°C] ff [km/u] ff [kn] fx [km/u] fx [kn] dd ppp [hPa] vv [km]
12.12.2018 16:00:00 - - - - - - - - -
12.12.2018 15:00:00 5,3 1,4 7 4 11 6 ONO 1024,5 17
12.12.2018 14:00:00 5,4 1,5 7 4 14 8 O 1025,0 15
12.12.2018 13:00:00 5,3 2,2 7 4 - - O 1025,4 12
12.12.2018 12:00:00 4,8 2,3 4 2 11 6 N 1026,0 11
12.12.2018 11:00:00 3,2 0,8 7 4 11 6 O 1026,2 9
12.12.2018 10:00:00 1,2 -0,2 4 2 - - N 1026,2 9
12.12.2018 09:00:00 0,8 -0,7 4 2 7 4 N 1026,0 9
12.12.2018 08:00:00 0,6 -1,2 4 2 7 4 N 1025,9 13
12.12.2018 07:00:00 -0,2 -1,4 4 2 - - N 1025,7 8
12.12.2018 06:00:00 1,1 -0,3 4 2 11 6 N 1025,5 15
12.12.2018 05:00:00 2,0 -0,5 4 2 7 4 N 1025,7 18
12.12.2018 04:00:00 1,0 -0,7 4 2 - - N 1025,7 14
12.12.2018 03:00:00 1,0 0,0 7 4 11 6 O 1025,5 8
12.12.2018 02:00:00 1,8 1,1 4 2 7 4 N 1025,5 6
12.12.2018 01:00:00 2,1 1,2 4 2 - - N 1025,5 7
12.12.2018 00:00:00 2,5 1,7 4 2 4 2 N 1025,9 11
11.12.2018 23:00:00 3,2 1,7 4 2 7 4 N 1025,7 9
11.12.2018 22:00:00 4,8 2,2 4 2 - - N 1025,7 20
11.12.2018 21:00:00 4,2 1,8 4 2 4 2 N 1025,7 15
11.12.2018 20:00:00 3,5 2,2 4 2 4 2 N 1025,9 11
11.12.2018 19:00:00 4,7 2,4 4 2 - - N 1025,7 18
11.12.2018 18:00:00 4,3 2,6 4 2 4 2 N 1025,5 13
11.12.2018 17:00:00 4,8 2,3 4 2 4 2 N 1025,4 20
11.12.2018 16:00:00 6,5 2,1 4 2 - - N 1025,5 20
11.12.2018 15:00:00 7,7 3,0 4 2 4 2 N 1025,5 20
11.12.2018 14:00:00 6,5 2,5 4 2 7 4 N 1025,9 20
11.12.2018 13:00:00 6,0 3,1 4 2 - - N 1026,2 20
11.12.2018 12:00:00 4,9 2,5 4 2 7 4 N 1026,7 20
11.12.2018 11:00:00 - - - - - - - - -
11.12.2018 10:00:00 3,0 1,3 7 4 - - ZZW 1026,5 19
11.12.2018 09:00:00 1,9 0,8 4 2 11 6 - 1026,7 19
11.12.2018 08:00:00 - - - - - - - - -
11.12.2018 07:00:00 0,6 -0,1 4 2 - - N 1026,4 17
11.12.2018 06:00:00 2,0 0,6 4 2 7 4 N 1026,2 20
11.12.2018 05:00:00 2,4 1,0 4 2 7 4 N 1026,5 20
11.12.2018 04:00:00 2,8 1,2 4 2 - - N 1026,5 19
11.12.2018 03:00:00 2,7 1,3 4 2 7 4 N 1026,9 19
11.12.2018 02:00:00 2,9 1,4 7 4 11 6 WZW 1027,0 12
11.12.2018 01:00:00 3,7 1,6 4 2 - - N 1027,0 20
11.12.2018 00:00:00 3,2 1,5 4 2 7 4 N 1027,0 19
10.12.2018 23:00:00 3,5 1,6 4 2 7 4 N 1027,0 20
10.12.2018 22:00:00 4,4 1,6 4 2 - - N 1026,9 20
10.12.2018 21:00:00 4,3 1,7 4 2 7 4 N 1026,9 20
10.12.2018 20:00:00 4,7 1,6 4 2 11 6 N 1026,7 20
10.12.2018 19:00:00 4,6 1,7 4 2 - - N 1026,7 20
10.12.2018 18:00:00 5,0 2,1 4 2 14 8 N 1026,4 20
10.12.2018 17:00:00 6,3 2,5 7 4 18 10 WNW 1026,4 20
10.12.2018 16:00:00 6,6 3,0 11 6 - - NW 1025,9 20
10.12.2018 15:00:00 7,1 2,6 14 8 29 16 NW 1025,5 20
10.12.2018 14:00:00 7,3 4,0 14 8 25 14 NW 1025,4 20
10.12.2018 13:00:00 7,4 4,1 11 6 - - NW 1025,5 19
10.12.2018 12:00:00 7,8 5,0 7 4 18 10 W 1025,4 20
10.12.2018 11:00:00 6,6 4,1 7 4 18 10 W 1025,0 20
10.12.2018 10:00:00 5,8 3,3 7 4 - - W 1024,7 20
10.12.2018 09:00:00 4,4 2,9 7 4 14 8 W 1024,0 20
10.12.2018 08:00:00 4,5 3,2 7 4 14 8 W 1023,7 20
10.12.2018 07:00:00 3,7 2,4 7 4 - - WZW 1023,2 20
10.12.2018 06:00:00 4,1 2,1 7 4 14 8 ZW 1022,7 20
10.12.2018 05:00:00 4,8 2,2 7 4 14 8 W 1022,5 20
10.12.2018 04:00:00 4,6 2,2 7 4 - - W 1022,1 20
10.12.2018 03:00:00 4,8 2,5 7 4 14 8 W 1021,6 20
10.12.2018 02:00:00 5,0 2,5 7 4 14 8 W 1021,1 20
10.12.2018 01:00:00 4,6 1,9 7 4 - - W 1020,5 20
10.12.2018 00:00:00 4,6 2,0 7 4 14 8 WZW 1019,7 20
09.12.2018 23:00:00 5,5 2,0 7 4 14 8 W 1019,0 20
09.12.2018 22:00:00 5,5 1,9 7 4 - - - 1018,2 20
09.12.2018 21:00:00 6,1 1,9 7 4 18 10 W 1017,2 20
09.12.2018 20:00:00 7,0 1,8 7 4 29 16 WNW 1016,0 20
09.12.2018 19:00:00 7,6 2,3 14 8 - - NW 1015,2 20
09.12.2018 18:00:00 7,8 3,6 11 6 25 14 WNW 1013,5 20
09.12.2018 17:00:00 8,3 4,1 14 8 32 18 WNW 1011,6 20
09.12.2018 16:00:00 9,0 4,6 22 12 - - NW 1009,8 20
09.12.2018 15:00:00 9,0 5,1 18 10 47 25 NW 1008,1 20
09.12.2018 14:00:00 8,5 6,8 18 10 43 23 NW 1006,3 20
09.12.2018 13:00:00 9,4 6,5 22 12 - - WNW 1004,7 18
09.12.2018 12:00:00 9,3 7,1 14 8 32 18 WNW 1003,7 20
09.12.2018 11:00:00 8,6 6,5 14 8 40 21 W 1002,7 13
09.12.2018 10:00:00 9,0 6,2 14 8 - - W 1001,7 10
09.12.2018 09:00:00 9,6 5,0 22 12 40 21 W 1001,2 20
09.12.2018 08:00:00 9,2 5,0 25 14 47 25 W 1000,8 18
09.12.2018 07:00:00 9,3 4,5 25 14 - - W 1000,7 20
09.12.2018 06:00:00 9,0 4,5 25 14 50 27 W 1000,3 20
09.12.2018 05:00:00 9,5 4,4 25 14 50 27 W 1000,1 20
09.12.2018 04:00:00 9,6 4,6 25 14 - - W 999,8 20
09.12.2018 03:00:00 9,6 5,1 22 12 50 27 W 999,4 19
09.12.2018 02:00:00 9,7 5,2 25 14 40 21 WZW 999,0 20
09.12.2018 01:00:00 9,5 5,4 25 14 - - WZW 998,9 19
09.12.2018 00:00:00 9,8 5,5 25 14 47 25 W 998,8 17
08.12.2018 23:00:00 10,5 6,8 25 14 47 25 WZW 998,1 20
08.12.2018 22:00:00 10,9 7,5 29 16 - - WZW 998,2 17
08.12.2018 21:00:00 11,1 8,2 32 18 61 33 WZW 997,9 20
08.12.2018 20:00:00 10,6 8,7 32 18 50 27 WZW 998,5 20
08.12.2018 19:00:00 9,6 8,7 36 19 - - ZZW 999,6 19
08.12.2018 18:00:00 9,1 8,5 29 16 47 25 ZZW 1001,5 4,5
08.12.2018 17:00:00 9,3 8,8 32 18 47 25 ZZW 1003,0 2,4
08.12.2018 16:00:00 10,8 6,6 18 10 - - ZW 1004,7 19
08.12.2018 15:00:00 11,1 5,7 29 16 50 27 WZW 1005,3 16
08.12.2018 14:00:00 11,1 4,8 32 18 50 27 WZW 1006,0 20
08.12.2018 13:00:00 10,9 5,1 25 14 - - WZW 1006,3 20
08.12.2018 12:00:00 10,8 4,6 29 16 58 31 W 1006,7 20
08.12.2018 11:00:00 10,3 4,6 25 14 47 25 W 1006,3 20
08.12.2018 10:00:00 9,9 4,3 25 14 - - WZW 1006,3 20
08.12.2018 09:00:00 9,1 4,7 25 14 43 23 WZW 1006,1 20
08.12.2018 08:00:00 8,4 4,8 22 12 40 21 WZW 1005,7 19
08.12.2018 07:00:00 7,5 5,4 22 12 - - ZW 1005,5 20
08.12.2018 06:00:00 7,0 5,4 25 14 40 21 ZW 1005,6 20
08.12.2018 05:00:00 7,1 5,4 22 12 40 21 ZW 1006,2 20
08.12.2018 04:00:00 7,1 4,6 22 12 - - ZZW 1006,3 20
08.12.2018 03:00:00 6,9 4,6 25 14 36 19 ZZW 1006,8 20
08.12.2018 02:00:00 6,5 3,6 22 12 32 18 ZZW 1007,2 20
08.12.2018 01:00:00 6,9 3,1 18 10 - - ZW 1007,7 20
08.12.2018 00:00:00 6,5 3,2 14 8 29 16 ZW 1007,6 20
07.12.2018 23:00:00 6,5 2,7 14 8 29 16 ZW 1007,2 20
07.12.2018 22:00:00 6,9 2,5 18 10 - - WZW 1006,7 20
07.12.2018 21:00:00 7,6 3,3 25 14 40 21 WZW 1006,2 20
07.12.2018 20:00:00 7,8 4,2 22 12 32 18 WZW 1005,1 20
07.12.2018 19:00:00 7,5 5,1 14 8 - - WZW 1004,0 20
07.12.2018 18:00:00 7,6 6,0 11 6 36 19 WZW 1002,8 20
07.12.2018 17:00:00 7,8 6,4 22 12 47 25 W 1001,6 5
07.12.2018 16:00:00 10,0 7,6 25 14 - - WZW 1000,1 20
07.12.2018 15:00:00 10,6 9,5 32 18 65 35 ZZW 999,3 9
07.12.2018 14:00:00 10,7 9,5 32 18 54 29 ZZW 1000,7 8
07.12.2018 13:00:00 11,6 9,5 32 18 - - ZZW 1002,2 20
07.12.2018 12:00:00 11,5 9,9 32 18 50 27 ZZW 1004,2 20
07.12.2018 11:00:00 11,8 9,7 29 16 50 27 ZZW 1006,2 20
07.12.2018 10:00:00 11,5 9,9 29 16 - - ZZW 1007,2 14
07.12.2018 09:00:00 11,1 10,3 25 14 40 21 ZZW 1008,3 20
07.12.2018 08:00:00 11,0 10,1 29 16 43 23 ZZW 1009,3 6
07.12.2018 07:00:00 11,0 9,9 25 14 - - ZZW 1010,2 17
07.12.2018 06:00:00 10,8 10,0 22 12 36 19 ZZW 1011,2 13
07.12.2018 05:00:00 10,8 10,0 25 14 36 19 ZZW 1012,2 8
07.12.2018 04:00:00 10,8 10,2 22 12 - - ZZW 1013,2 19
07.12.2018 03:00:00 10,6 10,1 22 12 32 18 ZZW 1014,0 8
07.12.2018 02:00:00 10,7 10,1 22 12 32 18 ZZW 1014,6 14
07.12.2018 01:00:00 10,8 10,2 22 12 - - ZZW 1015,3 7
07.12.2018 00:00:00 10,8 10,3 22 12 36 19 ZZW 1016,1 6
06.12.2018 23:00:00 10,6 10,3 18 10 32 18 ZZW 1016,5 2,8
06.12.2018 22:00:00 11,1 10,0 18 10 - - ZW 1016,8 3,2
06.12.2018 21:00:00 11,8 9,9 18 10 32 18 ZW 1016,7 20
06.12.2018 20:00:00 12,0 10,3 18 10 40 21 ZW 1017,0 20
06.12.2018 19:00:00 11,8 10,7 18 10 - - ZW 1016,7 20
06.12.2018 18:00:00 11,8 10,8 18 10 32 18 ZW 1016,7 15
06.12.2018 17:00:00 12,3 10,5 18 10 29 16 ZW 1017,1 20
06.12.2018 16:00:00 12,3 10,5 18 10 - - ZW 1016,8 20

tt = temperatuur
td = dauwpunt
ff = windsnelheid
fx = windstoten
dd = windrichting
ppp = luchtdruk
vv = zicht

Weerstations in de omgeving